Regional Weather Roundup
Issued by NWS Cleveland, OH

Home | Current Version | Previous Version | Graphics & Text | Print | Product List | Glossary On
Versions: 1 2 3 4 5 6 7 8 9 10 11 12 13 14 15 16 17 18 19 20 21 22 23 24 25 26 27 28 29 30 31 32 33 34 35 36 37 38 39 40 41 42 43 44 45 46 47 48 49 50
000
ASUS41 KCLE 271002
RWRCLE
OHIO REGIONAL WEATHER ROUNDUP
NATIONAL WEATHER SERVICE CLEVELAND, OH
500 AM EST FRI FEB 27 2015

NOTE: "FAIR" INDICATES FEW OR NO CLOUDS BELOW 12,000 FEET WITH NO
SIGNIFICANT WEATHER AND/OR OBSTRUCTIONS TO VISIBILITY.

OHZ001>008-015>018-024>027-034-035-043-044-271100-
   NORTHWEST OHIO

CITY           SKY/WX    TMP DP  RH WIND       PRES   REMARKS
DEFIANCE       PTCLDY    -6 -11  79 CALM      30.44R
FINDLAY        PTCLDY     2  -4  76 CALM      30.40R
TOLEDO EXPRESS CLEAR     -7 -12  79 CALM      30.42R
TOLEDO EXEC    CLEAR     -4 -10  75 CALM      30.44R
LIMA           MOCLDY     2  -4  76 CALM      30.39R
$$

OHZ009>014-019>023-028>033-038-089-271100-
   NORTHEAST OHIO

CITY           SKY/WX    TMP DP  RH WIND       PRES   REMARKS
CLE-HOPKINS    CLEAR      1  -6  72 N7        30.43R WCI -12
CLE-LAKEFRONT  CLEAR      1  -5  75 CALM      30.42R
CUY CO. ARPT   NOT AVBL
LORAIN-ELYRIA  CLEAR     -7 -12  79 CALM      30.41R
ASHTABULA      CLEAR     -8 -13  78 NW5       30.37R WCI -19
AKRON-CANTON   CLEAR     -1  -7  75 NW5       30.35R WCI -11
WOOSTER        CLEAR     -8 -11  86 NW3       30.38R
MANSFIELD      CLOUDY     4   0  83 CALM      30.35R
YOUNGSTOWN     PTCLDY    -1  -4  87 NW5       30.32R WCI -11
$$

OHZ042-051>053-060>062-070>072-077>081-271100-
  SOUTHWEST OHIO

CITY           SKY/WX    TMP DP  RH WIND       PRES   REMARKS
CINC-COVINGTON FLURRIES  11   6  81 W6        30.43R WCI   1
CINC-LUNKEN    LGT SNOW  11   6  81 CALM      30.48R
HAMILTON       CLOUDY    10   6  84 SW3       30.46R
DAYTON         LGT SNOW   8   4  83 NW7       30.41R FOG     WCI  -3
WRIGHT-PAT AFB NOT AVBL
DAYTON GENERAL LGT SNOW   9   5  84 NW3       30.40R FOG
WILMINGTON     CLOUDY     7   3  84 W5        30.39R WCI  -2
$$

OHZ036-037-039>041-045>050-054>059-063>069-073>076-082>088-271100-
  CENTRAL AND SOUTHEAST OHIO

CITY           SKY/WX    TMP DP  RH WIND       PRES   REMARKS
COLUMBUS       LGT SNOW   5   1  83 CALM      30.41R FOG
OSU AIRPORT    CLOUDY     2  -1  88 CALM      30.40R
BOLTON FIELD   CLOUDY   N/A N/A N/A CALM      30.41R
RICKENBACK AFB PTCLDY     1  -2  88 CALM      30.42R
NEWARK         MOCLDY     2  -2  83 CALM      30.40R
MARION         CLOUDY     4  -1  80 CALM      30.39R HAZE
LANCASTER      CLEAR     -2  -6  83 CALM      30.41R
ZANESVILLE     CLEAR      5   0  79 NW3       30.39R
NEW PHILLY     CLEAR      5  -1  76 NW5       30.40R WCI  -4
$$



USA.gov is the U.S. government's official web portal to all federal, state and local government web resources and services.